SCP
-0 -0 -0 -0 -0 -0 -0 -0 -0 -0 -0 -0 -0 -0 -0 -0 -0 0 -0 -0 -0 0 0 0 0 0 -0 -0 -0 -0 -0 -0 0 0 -0 -0 -0 -0 -0 -0 -0 -0 -0 -0 -0
-0 -0 -0 -0 -0 -0 0 -0 -0 -0 -0 -0 -0 -0 -0 -0 -0 -0 -0 -0 -0 0 -0 0 0 -0 -0 -0 -0 -0 0 -0 0 -0 0 -0 -0 -0 -0 -0 -0 -0 -0 -0 -0
-0 -0 -0 -0 -0 -0 -0 0 -0 -0 0 0 0 0 0 0 -0 0 0 -0 -0 -0 -0 -0 -0 0 -0 0 -0 -0 0 0 -0 -0 -0 0 -0 -0 -0 -0 -1 -1 -0 -0 -0
0 0 -0 -0 -0 -0 -0 -0 0 0 0 0 0 0 0 0 0 0 0 0 -0 0 -0 0 -0 0 0 0 -0 -0 -0 -0 -0 -0 -0 -0 0 -0 -0 -0 -0 -0 -0 -0 -0
0 0 0 0 0 -0 -0 -0 -0 -0 0 0 0 0 0 0 0 0 0 0 -0 0 0 -0 0 0 0 0 0 -0 -0 -0 -0 -0 -0 -0 -0 0 -0 -0 -0 -1 -0 -0 -0
0 0 0 0 0 0 0 0 0 0 0 0 0 0 0 -0 0 -0 0 0 0 -0 0 -0 -0 -0 -0 -0 0 -0 -0 -0 0 -0 0 -0 0 0 -0 -0 -0 -0 -0 -0 -0
0 0 0 0 0 0 0 0 0 0 0 0 0 0 0 0 0 0 0 0 0 -0 -0 -0 -0 -0 -0 -0 0 0 0 0 0 -0 0 0 0 0 0 -0 -0 -0 -0 -0 -0
0 0 0 0 0 0 0 0 0 0 0 0 0 0 0 0 -0 -0 0 0 0 0 0 -0 -0 0 -0 0 0 0 0 -0 0 0 -0 -0 -0 0 -0 0 -0 -0 -0 -0 -0
0 0 0 0 0 0 0 0 0 0 0 0 0 0 0 0 0 0 0 0 0 0 0 -0 0 -0 0 -0 0 -0 -0 0 -0 -0 -0 0 0 -0 0 0 -0 -0 -0 -0 -0
0 0 0 0 -0 -0 -0 0 -0 0 -0 0 0 0 0 0 0 0 0 0 0 0 -0 -0 0 0 -0 -0 -0 -0 0 0 0 0 -0 0 -0 0 0 -0 -0 -0 -0 -0 -0
0 0 0 0 -0 -0 -0 -0 0 -0 0 0 0 0 0 0 0 0 0 0 0 0 0 0 0 0 0 -0 -0 -0 0 0 0 -0 0 0 0 0 0 0 0 0 -0 -0 -0
0 0 0 0 -0 -0 -0 -0 -0 -0 0 0 0 -0 -0 0 0 0 0 0 0 0 0 0 -0 -0 -0 0 0 0 0 0 -0 -0 0 -0 0 0 -0 -0 -0 -0 -0 -0 -0
0 0 0 0 -0 -0 -0 -0 -0 -0 -0 -0 0 0 0 0 0 0 0 0 0 0 -0 -0 0 0 -0 -0 -0 -0 -0 -0 -0 0 0 0 0 0 -0 0 -0 0 0 -0 -0
0 0 0 -0 -0 -0 -0 -0 -0 -0 -0 -0 -0 0 0 0 0 0 0 0 0 0 -0 0 -0 -0 -0 -0 -0 -0 -0 -0 0 0 0 0 -0 0 -0 0 -0 0 0 -0 -0
0 0 0 -0 0 -0 -0 -0 -0 -0 0 -0 0 0 0 0 0 0 -0 0 0 0 0 0 0 -0 0 -0 -0 -0 0 -0 0 0 0 0 -0 0 0 -0 0 0 0 -0 -0
0 0 -0 0 0 0 -0 -0 -0 -0 -0 0 0 0 0 0 0 0 0 0 0 0 0 0 0 0 0 0 0 0 0 0 0 0 0 0 0 0 -0 -0 -0 0 -0 -0 -0
-0 0 -0 -0 0 -0 -0 -0 -0 -0 0 0 0 0 0 0 0 0 0 0 0 0 0 0 0 0 0 0 0 0 -0 0 0 -0 -0 -0 0 0 -0 0 0 -0 0 0 0
0 0 0 -0 0 -0 -0 -0 -0 -0 0 0 0 0 0 0 0 0 0 0 0 0 0 0 0 0 0 0 0 -0 -0 -0 0 0 -0 -0 -0 -0 0 0 -0 -0 0 0 0
0 0 -0 0 0 0 0 0 0 0 0 0 0 0 0 0 0 0 0 0 0 0 0 0 0 0 0 0 0 0 -0 -0 -0 -0 0 -0 -0 0 0 0 0 0 0 0 0
0 0 -0 0 0 -0 -0 0 0 0 0 0 0 0 0 0 0 0 0 0 0 0 0 0 0 0 0 0 0 0 0 0 0 -0 -0 -0 0 -0 0 0 0 0 0 0 0
0 0 0 0 0 0 -0 0 0 0 0 0 0 0 0 -0 0 0 0 0 0 0 0 0 0 0 0 0 0 0 0 0 0 0 0 0 -0 0 -0 -0 0 0 0 0 0
0 0 -0 0 0 0 0 0 0 0 0 0 0 0 -0 -0 -0 0 0 0 0 0 0 0 0 0 0 0 0 0 0 0 0 0 0 0 0 0 0 0 0 -0 0 0 0
0 0 -0 -0 0 0 0 -0 0 0 0 0 -0 0 0 -0 -0 0 0 0 0 0 0 0 0 0 0 0 0 0 0 0 0 0 0 0 0 0 0 0 0 0 -0 0 0
0 0 0 0 -0 0 0 0 0 0 0 0 -0 0 0 0 0 -0 -0 0 0 0 0 0 0 0 0 0 0 0 0 0 0 0 0 0 0 0 0 0 0 0 0 0 0
0 0 0 0 -0 -0 -0 0 -0 0 0 -0 -0 0 -0 -0 0 -0 -0 0 0 0 0 0 0 0 0 0 0 0 0 0 0 0 0 0 0 0 0 0 0 0 0 -0 0
0 0 0 0 0 0 -0 0 0 -0 -0 0 0 -0 0 0 0 -0 -0 0 0 0 0 0 0 0 0 0 0 0 0 0 0 0 0 0 0 0 0 0 0 0 0 0 0
0 0 0 0 0 0 0 0 -0 -0 -0 -0 -0 0 0 -0 -0 -0 -0 -0 0 0 0 0 0 0 0 0 0 0 0 0 0 0 0 0 0 0 0 0 0 0 0 0 0
Wind_Speed_500mb
43 43 43 44 45 44 43 43 42 41 38 40 41 39 35 39 41 45 64 47 30 34 27 23 38 43 42 47 42 33 12 14 23 28 12 28 32 41 41 44 31 28 63 80 74
44 44 46 47 48 48 49 49 49 48 43 43 38 36 33 36 43 62 65 46 44 36 49 38 48 48 55 51 42 34 7 11 19 25 10 27 32 33 31 33 44 66 71 74 70
46 47 49 50 50 52 54 55 54 50 48 45 33 33 28 25 34 28 26 42 48 48 44 40 43 52 57 46 45 47 16 25 27 39 31 18 59 39 38 30 67 73 77 76 71
49 49 50 52 54 55 57 57 55 52 50 43 39 32 24 16 13 3 0 19 44 45 44 47 53 60 46 42 51 39 41 33 49 41 44 41 43 38 28 49 54 65 74 79 72
53 54 54 54 56 57 59 58 55 52 50 42 38 26 23 25 48 25 37 11 34 54 58 57 61 61 49 45 49 42 41 63 54 20 55 59 49 7 42 54 56 64 71 73 71
54 55 56 57 58 59 60 60 55 49 45 39 33 23 28 36 33 35 24 26 33 59 62 60 57 61 54 51 45 51 42 34 35 53 38 29 51 24 28 54 61 68 70 74 72
56 58 59 60 61 61 59 55 55 51 43 37 30 22 31 63 13 19 33 32 38 52 64 62 59 55 61 43 61 56 37 33 35 35 25 28 21 18 42 55 56 64 68 65 72
60 62 63 64 64 61 57 57 57 49 46 30 24 18 29 19 38 36 31 40 37 42 53 51 55 53 61 49 57 50 41 35 41 42 34 32 29 29 77 47 56 62 66 66 62
59 60 60 61 63 62 60 48 52 47 39 13 3 17 26 14 45 53 41 46 43 40 49 50 49 58 51 42 38 43 39 44 41 45 36 35 23 50 42 54 63 58 62 67 64
63 64 65 63 58 52 56 56 43 34 20 8 16 17 36 32 29 49 56 46 52 48 51 52 49 39 40 38 42 45 43 39 48 42 47 43 39 43 43 56 44 64 61 67 70
71 71 69 64 53 50 52 52 63 6 21 48 28 37 42 16 9 35 58 55 56 58 45 59 35 51 60 51 47 47 41 48 44 44 45 41 32 41 24 38 66 66 64 65 68
68 68 67 58 43 43 36 45 37 39 60 55 75 88 86 59 47 38 56 66 60 54 49 43 56 52 53 50 55 54 48 50 47 50 29 42 34 51 50 85 66 62 62 66 62
66 68 67 57 31 37 27 41 43 45 34 60 85 84 91 68 66 51 69 77 58 59 62 57 37 52 54 52 55 56 54 49 42 42 48 36 31 41 54 43 62 62 91 69 69
66 67 60 59 16 29 35 45 44 37 16 21 27 22 73 65 63 68 71 77 53 64 65 55 59 57 54 58 53 53 55 53 49 37 34 44 31 40 32 42 51 72 69 65 71
65 65 56 26 34 25 45 46 38 19 15 18 17 13 16 67 9 83 71 81 64 49 60 64 55 61 57 52 55 51 51 51 52 39 35 40 34 27 42 41 42 45 56 69 72
59 56 44 22 30 34 47 44 24 11 27 23 53 50 25 53 70 41 88 84 77 56 57 63 63 53 53 47 54 49 45 50 47 36 34 45 38 34 35 41 38 42 54 75 77
68 38 20 18 19 44 41 33 12 15 36 40 57 57 56 50 45 59 59 63 57 57 56 57 67 58 52 50 52 42 43 27 29 35 35 43 40 27 37 47 45 44 60 62 82
77 34 25 19 32 39 36 26 22 23 35 55 50 53 49 43 46 43 55 56 66 61 35 45 52 70 42 57 51 55 52 29 44 35 35 44 46 39 43 39 73 70 69 65 67
78 39 26 12 35 31 32 19 24 20 31 36 50 44 46 60 42 55 57 56 64 67 63 46 59 53 58 50 50 52 51 49 43 39 32 38 41 46 48 45 37 33 63 68 70
69 44 35 17 37 27 24 29 25 24 32 42 47 39 46 47 51 51 45 56 54 66 65 61 34 64 65 51 58 56 44 42 34 42 40 38 45 38 43 43 45 36 37 58 70
45 33 13 31 28 34 22 25 33 45 53 39 44 40 41 40 40 45 27 45 39 37 64 61 51 45 58 66 55 43 42 49 40 32 30 28 27 30 50 50 42 45 47 46 63
36 19 44 29 37 12 14 30 32 39 21 35 46 32 25 23 36 32 40 29 69 50 31 37 44 43 51 55 64 57 56 51 25 42 31 28 10 24 10 45 40 35 60 60 54
42 48 24 36 19 20 31 37 38 22 21 24 36 29 30 23 20 19 33 52 84 57 24 23 27 41 52 46 62 62 59 58 44 37 39 29 14 11 22 25 42 43 41 65 50
29 13 33 35 36 35 35 33 32 18 7 25 50 26 27 30 30 18 30 30 79 63 34 14 17 40 39 42 38 58 59 58 57 34 33 34 14 14 13 9 6 29 43 39 57
19 11 14 13 27 39 40 32 36 19 25 27 25 21 26 26 30 15 19 47 51 57 37 21 27 36 55 48 44 54 54 59 60 41 44 37 35 26 22 20 11 19 38 48 50
10 12 16 35 43 37 36 22 41 31 27 30 35 16 30 25 26 28 29 27 21 41 42 36 17 22 35 43 41 35 62 61 58 58 46 49 34 34 31 33 22 29 26 28 24
15 26 16 16 29 23 26 29 43 44 33 37 31 31 36 23 35 40 39 40 39 45 36 26 20 15 32 35 44 38 31 54 51 52 48 40 30 38 40 36 27 26 17 17 11
Wind_Direction_500mb
358 354 350 344 339 335 332 326 321 317 309 300 295 294 291 283 275 268 256 241 236 232 214 227 210 209 215 228 229 251 292 315 334 336 99 114 103 90 104 130 140 142 145 150 148
359 355 350 346 342 336 330 326 321 319 314 312 299 292 293 287 286 270 257 247 222 216 225 213 210 209 219 228 234 231 111 251 264 272 352 324 122 132 130 129 118 116 132 149 152
359 355 352 347 343 339 334 329 323 320 315 313 305 298 288 292 298 276 252 239 222 211 215 214 213 211 221 221 224 238 182 222 241 263 219 18 302 148 137 138 128 136 146 155 158
357 354 351 346 341 338 334 330 325 319 313 310 305 296 271 250 264 104 156 222 209 204 210 214 214 217 225 225 230 232 229 193 293 277 171 140 319 142 160 136 136 148 153 158 163
357 354 352 347 342 338 334 331 327 320 314 309 305 290 241 231 242 253 288 240 192 201 205 209 214 216 220 227 229 238 246 186 204 232 153 108 274 242 134 137 138 150 158 160 165
357 356 353 349 345 341 336 332 329 323 316 308 302 284 224 247 255 244 231 226 205 198 207 209 217 216 227 232 238 232 233 235 218 212 178 176 195 144 164 141 144 155 164 165 170
357 356 354 350 347 343 340 334 332 327 318 305 295 272 239 237 237 220 206 219 203 204 207 210 215 217 226 233 238 241 244 243 246 243 240 213 132 200 135 145 153 162 167 173 173
356 354 352 349 347 345 341 333 323 322 319 302 281 232 252 271 211 215 216 213 209 214 208 209 214 227 232 239 237 248 245 226 218 236 224 217 210 114 135 218 162 165 171 175 181
353 352 352 348 346 346 345 339 320 316 312 308 159 212 264 272 217 217 209 207 203 204 207 213 212 224 228 229 242 239 237 236 240 213 224 208 210 143 185 276 163 170 174 176 182
352 352 353 350 350 358 359 350 347 318 349 321 244 239 250 238 230 213 207 203 202 199 209 218 211 216 226 215 222 229 219 227 234 202 208 227 226 170 161 229 201 176 178 178 182
352 351 351 351 353 11 3 9 355 314 325 278 254 238 286 300 253 202 199 199 201 205 206 206 209 214 215 222 224 235 225 222 227 235 208 224 180 162 142 302 272 172 176 186 182
349 347 346 349 348 5 360 359 354 311 301 279 262 260 255 259 284 219 194 197 200 205 203 205 222 215 220 215 227 230 240 227 230 221 205 228 214 171 160 194 239 156 196 183 179
345 343 344 348 345 357 349 342 336 327 291 289 252 243 236 236 240 224 196 199 201 203 204 214 213 222 217 219 221 225 231 243 226 243 185 217 239 205 190 172 141 255 191 176 178
343 340 343 340 349 336 339 335 332 329 290 273 211 259 221 218 226 224 202 201 209 210 211 217 227 200 216 219 217 222 226 242 254 228 224 195 214 213 223 218 177 205 175 176 180
340 336 334 339 332 338 329 328 326 315 299 89 99 2 232 202 179 211 213 207 214 205 209 213 215 221 208 217 216 226 217 229 248 257 248 229 229 211 211 221 205 180 187 179 185
336 331 330 339 306 313 322 321 307 249 247 1 6 349 313 208 233 267 205 209 216 220 214 227 213 226 220 213 218 218 226 215 231 245 245 242 216 225 226 211 219 190 201 184 182
337 330 330 326 314 329 325 317 275 249 302 351 344 338 325 307 229 240 198 200 209 219 212 215 227 219 221 203 212 209 214 212 210 217 232 234 244 242 224 195 203 201 195 196 179
340 323 324 298 328 319 320 285 274 277 348 335 333 321 301 293 298 241 240 209 210 221 215 212 213 221 205 212 202 209 212 216 212 211 217 238 228 231 252 262 196 200 185 198 186
340 333 294 265 328 318 295 286 313 351 329 328 321 310 320 335 344 321 233 226 206 220 221 209 225 202 225 211 215 203 216 216 228 223 223 218 225 252 226 245 249 219 189 187 188
338 318 284 292 319 301 273 274 311 340 326 317 301 304 308 314 325 331 314 228 211 210 234 240 226 227 203 206 220 220 198 216 229 235 228 223 218 215 218 218 222 222 209 196 185
344 319 360 331 319 274 280 327 337 330 331 316 311 305 303 339 318 304 279 327 356 226 210 238 248 232 224 206 206 210 212 209 228 233 238 251 229 210 200 202 206 208 210 225 192
331 302 314 343 298 325 308 337 335 319 328 335 308 301 317 326 308 306 296 304 329 323 288 240 233 245 246 210 208 210 216 207 220 213 243 265 277 10 230 178 200 206 204 203 217
330 304 312 327 312 339 333 317 330 332 320 314 289 309 306 302 294 292 315 322 311 323 357 350 237 229 243 237 192 213 208 221 211 227 222 239 230 70 47 146 183 191 219 186 203
325 316 333 330 339 338 325 318 310 26 333 340 307 317 320 306 301 308 320 314 321 300 319 291 259 246 227 229 208 194 213 209 225 208 225 217 156 148 114 131 167 163 194 194 193
342 296 325 308 325 317 308 314 306 283 297 221 291 319 306 308 312 300 305 321 325 315 330 256 262 249 240 237 224 195 209 213 216 215 218 216 208 148 140 148 155 134 182 207 186
299 330 319 296 287 300 302 327 282 318 311 317 314 282 302 309 303 315 312 301 299 322 334 336 271 281 264 265 272 269 199 213 216 226 204 238 207 131 129 133 149 109 86 69 82
262 293 294 277 288 290 288 321 321 316 304 303 275 306 301 334 298 296 286 271 261 285 309 320 339 293 252 249 246 243 244 202 218 213 223 216 230 143 142 136 140 129 105 119 109
Wind_Speed_850mb
43 43 43 44 45 44 43 43 42 41 38 40 41 39 35 39 41 45 64 47 30 34 27 23 38 43 42 47 42 33 12 14 23 28 12 28 32 41 41 44 31 28 63 80 74
44 44 46 47 48 48 49 49 49 48 43 43 38 36 33 36 43 62 65 46 44 36 49 38 48 48 55 51 42 34 7 11 19 25 10 27 32 33 31 33 44 66 71 74 70
46 47 49 50 50 52 54 55 54 50 48 45 33 33 28 25 34 28 26 42 48 48 44 40 43 52 57 46 45 47 16 25 27 39 31 18 59 39 38 30 67 73 77 76 71
49 49 50 52 54 55 57 57 55 52 50 43 39 32 24 16 13 3 0 19 44 45 44 47 53 60 46 42 51 39 41 33 49 41 44 41 43 38 28 49 54 65 74 79 72
53 54 54 54 56 57 59 58 55 52 50 42 38 26 23 25 48 25 37 11 34 54 58 57 61 61 49 45 49 42 41 63 54 20 55 59 49 7 42 54 56 64 71 73 71
54 55 56 57 58 59 60 60 55 49 45 39 33 23 28 36 33 35 24 26 33 59 62 60 57 61 54 51 45 51 42 34 35 53 38 29 51 24 28 54 61 68 70 74 72
56 58 59 60 61 61 59 55 55 51 43 37 30 22 31 63 13 19 33 32 38 52 64 62 59 55 61 43 61 56 37 33 35 35 25 28 21 18 42 55 56 64 68 65 72
60 62 63 64 64 61 57 57 57 49 46 30 24 18 29 19 38 36 31 40 37 42 53 51 55 53 61 49 57 50 41 35 41 42 34 32 29 29 77 47 56 62 66 66 62
59 60 60 61 63 62 60 48 52 47 39 13 3 17 26 14 45 53 41 46 43 40 49 50 49 58 51 42 38 43 39 44 41 45 36 35 23 50 42 54 63 58 62 67 64
63 64 65 63 58 52 56 56 43 34 20 8 16 17 36 32 29 49 56 46 52 48 51 52 49 39 40 38 42 45 43 39 48 42 47 43 39 43 43 56 44 64 61 67 70
71 71 69 64 53 50 52 52 63 6 21 48 28 37 42 16 9 35 58 55 56 58 45 59 35 51 60 51 47 47 41 48 44 44 45 41 32 41 24 38 66 66 64 65 68
68 68 67 58 43 43 36 45 37 39 60 55 75 88 86 59 47 38 56 66 60 54 49 43 56 52 53 50 55 54 48 50 47 50 29 42 34 51 50 85 66 62 62 66 62
66 68 67 57 31 37 27 41 43 45 34 60 85 84 91 68 66 51 69 77 58 59 62 57 37 52 54 52 55 56 54 49 42 42 48 36 31 41 54 43 62 62 91 69 69
66 67 60 59 16 29 35 45 44 37 16 21 27 22 73 65 63 68 71 77 53 64 65 55 59 57 54 58 53 53 55 53 49 37 34 44 31 40 32 42 51 72 69 65 71
65 65 56 26 34 25 45 46 38 19 15 18 17 13 16 67 9 83 71 81 64 49 60 64 55 61 57 52 55 51 51 51 52 39 35 40 34 27 42 41 42 45 56 69 72
59 56 44 22 30 34 47 44 24 11 27 23 53 50 25 53 70 41 88 84 77 56 57 63 63 53 53 47 54 49 45 50 47 36 34 45 38 34 35 41 38 42 54 75 77
68 38 20 18 19 44 41 33 12 15 36 40 57 57 56 50 45 59 59 63 57 57 56 57 67 58 52 50 52 42 43 27 29 35 35 43 40 27 37 47 45 44 60 62 82
77 34 25 19 32 39 36 26 22 23 35 55 50 53 49 43 46 43 55 56 66 61 35 45 52 70 42 57 51 55 52 29 44 35 35 44 46 39 43 39 73 70 69 65 67
78 39 26 12 35 31 32 19 24 20 31 36 50 44 46 60 42 55 57 56 64 67 63 46 59 53 58 50 50 52 51 49 43 39 32 38 41 46 48 45 37 33 63 68 70
69 44 35 17 37 27 24 29 25 24 32 42 47 39 46 47 51 51 45 56 54 66 65 61 34 64 65 51 58 56 44 42 34 42 40 38 45 38 43 43 45 36 37 58 70
45 33 13 31 28 34 22 25 33 45 53 39 44 40 41 40 40 45 27 45 39 37 64 61 51 45 58 66 55 43 42 49 40 32 30 28 27 30 50 50 42 45 47 46 63
36 19 44 29 37 12 14 30 32 39 21 35 46 32 25 23 36 32 40 29 69 50 31 37 44 43 51 55 64 57 56 51 25 42 31 28 10 24 10 45 40 35 60 60 54
42 48 24 36 19 20 31 37 38 22 21 24 36 29 30 23 20 19 33 52 84 57 24 23 27 41 52 46 62 62 59 58 44 37 39 29 14 11 22 25 42 43 41 65 50
29 13 33 35 36 35 35 33 32 18 7 25 50 26 27 30 30 18 30 30 79 63 34 14 17 40 39 42 38 58 59 58 57 34 33 34 14 14 13 9 6 29 43 39 57
19 11 14 13 27 39 40 32 36 19 25 27 25 21 26 26 30 15 19 47 51 57 37 21 27 36 55 48 44 54 54 59 60 41 44 37 35 26 22 20 11 19 38 48 50
10 12 16 35 43 37 36 22 41 31 27 30 35 16 30 25 26 28 29 27 21 41 42 36 17 22 35 43 41 35 62 61 58 58 46 49 34 34 31 33 22 29 26 28 24
15 26 16 16 29 23 26 29 43 44 33 37 31 31 36 23 35 40 39 40 39 45 36 26 20 15 32 35 44 38 31 54 51 52 48 40 30 38 40 36 27 26 17 17 11
Wind_Direction_850mb
358 354 350 344 339 335 332 326 321 317 309 300 295 294 291 283 275 268 256 241 236 232 214 227 210 209 215 228 229 251 292 315 334 336 99 114 103 90 104 130 140 142 145 150 148
359 355 350 346 342 336 330 326 321 319 314 312 299 292 293 287 286 270 257 247 222 216 225 213 210 209 219 228 234 231 111 251 264 272 352 324 122 132 130 129 118 116 132 149 152
359 355 352 347 343 339 334 329 323 320 315 313 305 298 288 292 298 276 252 239 222 211 215 214 213 211 221 221 224 238 182 222 241 263 219 18 302 148 137 138 128 136 146 155 158
357 354 351 346 341 338 334 330 325 319 313 310 305 296 271 250 264 104 156 222 209 204 210 214 214 217 225 225 230 232 229 193 293 277 171 140 319 142 160 136 136 148 153 158 163
357 354 352 347 342 338 334 331 327 320 314 309 305 290 241 231 242 253 288 240 192 201 205 209 214 216 220 227 229 238 246 186 204 232 153 108 274 242 134 137 138 150 158 160 165
357 356 353 349 345 341 336 332 329 323 316 308 302 284 224 247 255 244 231 226 205 198 207 209 217 216 227 232 238 232 233 235 218 212 178 176 195 144 164 141 144 155 164 165 170
357 356 354 350 347 343 340 334 332 327 318 305 295 272 239 237 237 220 206 219 203 204 207 210 215 217 226 233 238 241 244 243 246 243 240 213 132 200 135 145 153 162 167 173 173
356 354 352 349 347 345 341 333 323 322 319 302 281 232 252 271 211 215 216 213 209 214 208 209 214 227 232 239 237 248 245 226 218 236 224 217 210 114 135 218 162 165 171 175 181
353 352 352 348 346 346 345 339 320 316 312 308 159 212 264 272 217 217 209 207 203 204 207 213 212 224 228 229 242 239 237 236 240 213 224 208 210 143 185 276 163 170 174 176 182
352 352 353 350 350 358 359 350 347 318 349 321 244 239 250 238 230 213 207 203 202 199 209 218 211 216 226 215 222 229 219 227 234 202 208 227 226 170 161 229 201 176 178 178 182
352 351 351 351 353 11 3 9 355 314 325 278 254 238 286 300 253 202 199 199 201 205 206 206 209 214 215 222 224 235 225 222 227 235 208 224 180 162 142 302 272 172 176 186 182
349 347 346 349 348 5 360 359 354 311 301 279 262 260 255 259 284 219 194 197 200 205 203 205 222 215 220 215 227 230 240 227 230 221 205 228 214 171 160 194 239 156 196 183 179
345 343 344 348 345 357 349 342 336 327 291 289 252 243 236 236 240 224 196 199 201 203 204 214 213 222 217 219 221 225 231 243 226 243 185 217 239 205 190 172 141 255 191 176 178
343 340 343 340 349 336 339 335 332 329 290 273 211 259 221 218 226 224 202 201 209 210 211 217 227 200 216 219 217 222 226 242 254 228 224 195 214 213 223 218 177 205 175 176 180
340 336 334 339 332 338 329 328 326 315 299 89 99 2 232 202 179 211 213 207 214 205 209 213 215 221 208 217 216 226 217 229 248 257 248 229 229 211 211 221 205 180 187 179 185
336 331 330 339 306 313 322 321 307 249 247 1 6 349 313 208 233 267 205 209 216 220 214 227 213 226 220 213 218 218 226 215 231 245 245 242 216 225 226 211 219 190 201 184 182
337 330 330 326 314 329 325 317 275 249 302 351 344 338 325 307 229 240 198 200 209 219 212 215 227 219 221 203 212 209 214 212 210 217 232 234 244 242 224 195 203 201 195 196 179
340 323 324 298 328 319 320 285 274 277 348 335 333 321 301 293 298 241 240 209 210 221 215 212 213 221 205 212 202 209 212 216 212 211 217 238 228 231 252 262 196 200 185 198 186
340 333 294 265 328 318 295 286 313 351 329 328 321 310 320 335 344 321 233 226 206 220 221 209 225 202 225 211 215 203 216 216 228 223 223 218 225 252 226 245 249 219 189 187 188
338 318 284 292 319 301 273 274 311 340 326 317 301 304 308 314 325 331 314 228 211 210 234 240 226 227 203 206 220 220 198 216 229 235 228 223 218 215 218 218 222 222 209 196 185
344 319 360 331 319 274 280 327 337 330 331 316 311 305 303 339 318 304 279 327 356 226 210 238 248 232 224 206 206 210 212 209 228 233 238 251 229 210 200 202 206 208 210 225 192
331 302 314 343 298 325 308 337 335 319 328 335 308 301 317 326 308 306 296 304 329 323 288 240 233 245 246 210 208 210 216 207 220 213 243 265 277 10 230 178 200 206 204 203 217
330 304 312 327 312 339 333 317 330 332 320 314 289 309 306 302 294 292 315 322 311 323 357 350 237 229 243 237 192 213 208 221 211 227 222 239 230 70 47 146 183 191 219 186 203
325 316 333 330 339 338 325 318 310 26 333 340 307 317 320 306 301 308 320 314 321 300 319 291 259 246 227 229 208 194 213 209 225 208 225 217 156 148 114 131 167 163 194 194 193
342 296 325 308 325 317 308 314 306 283 297 221 291 319 306 308 312 300 305 321 325 315 330 256 262 249 240 237 224 195 209 213 216 215 218 216 208 148 140 148 155 134 182 207 186
299 330 319 296 287 300 302 327 282 318 311 317 314 282 302 309 303 315 312 301 299 322 334 336 271 281 264 265 272 269 199 213 216 226 204 238 207 131 129 133 149 109 86 69 82
262 293 294 277 288 290 288 321 321 316 304 303 275 306 301 334 298 296 286 271 261 285 309 320 339 293 252 249 246 243 244 202 218 213 223 216 230 143 142 136 140 129 105 119 109